Temp
16 16 16 16 16 17 17 17 18 18 18 18 18 17 18 19 18 16 14 13 13 13 12 12 11 11 11 10 10 10 10 10 9 9 8 8 8 8 8 7 7 7 7
17 17 17 18 18 19 18 18 19 18 18 18 17 17 18 18 18 17 15 13 13 13 12 12 12 11 11 10 10 10 10 9 9 8 8 8 8 8 8 7 7 7 7
17 18 18 19 19 19 19 19 18 18 18 18 17 17 17 17 17 18 16 15 13 12 12 12 12 11 11 11 10 10 10 9 9 8 8 8 8 8 8 8 8 7 7
17 18 19 19 19 19 19 19 18 19 19 19 18 17 18 17 17 17 18 17 15 14 12 12 12 12 11 11 11 10 10 9 9 9 8 8 9 9 9 8 8 8 8
16 17 18 18 19 19 19 19 18 19 19 19 18 18 18 18 17 17 17 17 17 16 14 13 12 12 11 11 11 10 10 9 9 9 8 8 8 9 8 8 8 8 8
16 17 17 17 18 18 18 18 18 18 19 19 19 18 18 18 17 17 17 16 16 16 16 14 12 12 12 11 11 11 11 10 9 9 9 8 8 8 8 9 8 8 8
15 16 16 17 17 18 18 18 18 18 18 19 19 18 18 17 17 17 17 17 17 16 16 16 14 13 13 12 12 11 11 11 10 10 9 9 8 8 7 7 7 8 7
15 16 16 16 16 18 18 17 17 18 18 18 19 19 19 18 17 16 17 17 17 16 16 15 15 15 15 13 12 11 11 11 11 10 10 9 8 8 7 7 7 7 7
15 16 16 16 16 18 18 17 17 17 18 18 17 19 20 20 20 18 16 17 17 15 16 16 15 15 15 15 14 12 12 11 11 11 10 10 9 8 8 8 7 7 7
15 16 16 17 17 17 18 17 17 17 18 18 17 17 18 18 19 17 18 16 16 16 15 15 15 15 15 15 15 14 13 12 11 11 11 11 10 9 9 8 8 8 7
15 15 16 17 17 17 17 17 17 16 17 18 18 18 17 18 18 18 18 18 17 17 15 14 14 15 15 15 14 14 13 13 12 11 11 11 10 10 10 9 9 8 8
15 15 17 17 16 16 16 16 16 16 16 17 17 17 17 17 18 18 17 18 17 16 15 12 13 13 13 13 13 13 14 13 12 11 11 10 10 9 9 9 9 9 9
14 15 15 16 16 15 15 16 16 15 16 16 16 16 16 16 17 18 17 17 18 16 13 12 13 13 13 11 11 11 12 12 11 11 10 10 10 9 9 8 8 8 8
14 15 16 16 16 16 15 15 16 16 16 16 16 16 16 16 17 17 17 17 15 14 12 12 12 12 11 11 10 11 10 11 11 10 10 10 9 9 8 8 8 8 7
15 14 15 15 15 15 15 16 16 16 16 16 16 16 16 16 17 17 16 15 14 13 12 11 11 11 12 10 10 9 9 9 9 10 9 9 9 8 8 8 7 7 7
16 16 15 15 15 15 15 16 16 16 16 16 16 16 16 16 16 16 14 13 12 12 12 13 11 11 11 10 9 8 7 8 8 8 8 8 8 8 7 7 6 6 6
16 17 17 16 16 16 16 16 16 16 16 16 16 16 16 16 15 14 12 11 11 10 10 11 10 9 8 8 7 6 7 7 7 7 7 8 7 6 6 6 5 5 5
17 17 17 17 17 17 16 16 16 16 16 16 16 16 16 15 14 13 12 11 11 10 10 10 8 7 7 7 5 6 6 7 7 7 7 7 6 6 5 5 5 5 5
17 17 17 17 17 16 16 16 16 16 16 16 16 16 16 14 14 13 11 10 10 10 9 8 6 6 5 5 5 5 5 6 6 7 7 6 6 5 4 4 5 5 5
16 16 16 16 16 16 16 16 17 17 17 16 15 15 15 14 13 12 11 10 10 9 8 7 5 5 4 4 5 4 4 5 5 7 7 6 5 4 4 3 3 3 3
17 16 16 16 16 16 16 16 16 16 16 15 15 15 14 14 14 12 11 9 9 8 6 5 5 3 3 3 3 4 4 5 5 6 6 5 5 5 4 4 3 3 3
16 16 16 16 16 16 16 16 16 16 15 14 14 14 14 13 12 12 11 9 9 7 5 4 4 3 3 3 3 3 4 4 5 5 5 5 5 4 3 3 3 3 3
17 17 16 16 16 16 16 16 15 15 15 14 14 13 12 11 11 10 8 7 6 5 5 4 4 3 3 3 3 3 3 3 3 4 4 4 3 3 3 3 3 2 1
17 17 17 16 16 16 16 16 15 14 14 13 12 11 10 9 8 7 6 4 3 2 3 3 2 0 1 2 2 1 2 2 2 2 2 2 2 2 2 2 2 1 1
17 17 17 16 16 15 15 14 14 12 11 10 9 8 7 6 4 5 4 1 -0 -1 -2 -2 -1 -1 -1 -1 -0 -0 -0 0 1 1 1 2 2 1 1 1 0 0 -1
16 12 12 12 12 11 11 11 11 10 7 4 3 2 2 2 0 0 1 -1 -2 -4 -3 -3 -3 -2 -2 -2 -2 -2 -2 -1 -1 -0 0 -1 -0 -0 -1 -0 -0 -1 -2
Height
816 820 825 828 832 835 841 843 846 848 851 854 856 859 860 860 863 867 872 874 877 878 879 882 881 882 883 886 887 887 889 889 890 891 891 892 893 893 893 893 893 893 893
816 821 825 827 830 833 839 841 844 848 851 854 857 859 861 863 864 866 871 874 875 876 879 880 881 882 883 886 887 888 889 889 890 890 890 890 892 892 893 893 893 892 892
816 819 823 824 827 831 837 840 845 847 849 854 857 859 862 863 864 866 869 873 876 876 877 879 881 882 883 885 886 887 887 888 889 889 889 889 890 891 890 890 891 891 891
815 819 822 824 827 830 836 840 843 845 848 852 855 858 860 863 864 866 867 869 872 875 877 879 879 880 880 882 884 885 885 886 887 888 887 887 887 889 888 888 889 891 890
816 819 821 824 827 831 835 838 842 844 847 849 853 856 858 861 863 864 866 867 869 870 871 873 877 878 880 880 881 883 883 883 884 885 886 886 886 887 888 888 888 889 888
815 817 820 823 828 831 835 838 842 844 846 847 849 854 857 859 860 862 864 865 867 867 868 868 872 875 876 878 878 879 880 880 881 883 883 884 886 887 886 885 887 887 888
813 812 819 823 828 830 833 837 841 842 845 846 848 851 855 856 858 858 860 862 862 864 866 867 868 869 869 869 873 875 877 878 879 880 881 882 883 884 886 885 885 885 885
809 813 818 824 828 828 832 836 838 840 842 844 845 848 850 853 853 854 855 857 858 859 860 863 865 867 867 866 867 870 873 874 875 876 877 877 879 880 881 882 882 883 881
809 811 815 822 824 825 829 833 835 836 837 841 843 842 841 838 838 842 847 851 854 856 857 859 861 862 863 863 862 863 865 867 869 871 872 872 872 873 874 875 875 877 877
804 808 815 818 820 823 825 829 831 832 833 835 840 841 838 837 836 839 842 845 848 850 852 854 856 857 859 860 861 861 860 862 864 866 868 869 869 869 868 869 870 870 871
801 807 810 813 816 819 822 824 827 829 830 831 832 836 838 837 837 837 837 841 843 844 847 848 852 850 852 855 858 857 857 857 859 860 862 862 862 863 863 864 863 864 865
799 802 804 807 811 814 817 820 823 825 827 826 828 830 832 834 834 835 835 833 835 838 840 842 844 845 845 844 850 854 851 851 852 853 854 855 856 856 858 858 858 858 859
791 793 797 801 804 809 812 815 817 820 821 822 825 827 828 830 831 828 828 829 829 832 832 833 834 835 836 840 840 844 845 845 844 844 847 847 848 848 849 849 848 849 850
783 786 791 795 797 801 805 808 809 813 815 815 817 821 822 823 823 823 823 825 826 827 825 825 826 827 828 828 830 832 837 839 839 837 837 839 840 841 840 841 841 841 841
777 781 785 787 791 794 797 800 802 805 806 807 809 812 813 814 815 815 817 818 819 818 816 815 815 812 815 820 821 826 829 829 832 832 831 831 833 835 834 834 834 835 834
770 774 777 781 784 787 790 794 795 797 799 800 802 804 805 806 806 808 809 812 813 811 804 807 806 806 806 808 813 816 821 822 824 825 825 826 827 828 828 827 828 828 828
762 766 769 773 776 779 783 786 786 788 790 791 793 794 795 797 797 799 801 803 804 805 800 798 798 797 799 803 803 811 815 816 817 819 820 820 821 822 821 821 821 822 821
754 757 761 764 767 770 773 775 777 779 781 782 783 785 785 786 788 790 792 792 793 794 796 793 793 793 793 797 802 806 809 811 812 813 814 814 814 815 815 815 814 814 813
743 748 751 753 756 759 763 766 768 770 771 772 774 774 775 776 778 781 781 781 782 781 784 787 785 789 790 793 798 800 804 806 807 807 808 808 808 809 808 806 805 804 804
732 736 740 743 746 750 751 754 756 758 760 761 763 765 766 767 765 770 773 771 772 774 776 780 782 781 786 789 792 796 798 800 802 803 803 803 804 803 801 799 799 798 797
721 724 728 731 735 738 739 741 743 745 747 750 753 756 757 758 759 761 761 761 762 766 769 773 775 778 780 782 785 789 791 794 796 797 798 798 798 797 796 795 793 793 792
713 717 718 720 724 726 727 730 735 737 740 742 743 746 749 749 750 752 752 753 755 757 760 764 768 771 773 778 782 786 789 791 793 794 793 792 793 791 791 790 789 788 787
703 706 708 710 712 716 718 720 724 729 732 733 735 738 739 742 743 743 745 747 750 752 756 758 764 768 769 775 780 782 787 789 789 790 791 789 789 787 786 785 784 781 780
690 694 699 702 705 707 710 713 717 721 723 724 725 727 729 731 733 736 740 744 749 751 752 755 760 768 772 774 779 782 786 788 787 787 788 785 784 782 781 780 778 777 775
682 687 691 694 697 700 701 706 711 713 714 716 717 720 723 725 728 730 736 743 748 750 758 762 762 771 774 774 778 781 785 787 785 784 783 781 779 777 776 774 773 770 768
674 676 681 685 688 693 697 700 704 705 709 713 717 721 724 727 729 731 733 740 747 753 760 758 770 770 775 775 776 778 782 784 784 781 779 779 777 776 770 767 767 765 764
Wind_Speed
25 25 26 27 25 23 21 20 15 15 15 14 13 13 11 11 15 15 15 17 17 16 15 14 14 14 14 13 12 11 11 12 10 10 10 9 8 8 8 7 7 7 7
24 25 26 27 26 24 21 19 16 16 16 15 14 13 12 13 12 14 15 17 18 17 16 15 14 14 14 13 12 11 10 11 9 10 9 9 8 6 6 5 5 4 4
25 24 26 26 25 23 21 17 16 16 16 16 15 14 12 12 11 12 14 15 15 18 18 18 16 15 15 14 13 12 11 11 10 11 10 9 8 6 4 4 3 3 3
22 22 22 21 20 18 19 18 18 17 17 17 16 15 13 12 12 11 11 14 16 15 19 19 19 19 17 16 14 14 13 12 13 13 12 11 9 7 5 5 4 3 1
22 20 20 18 20 20 19 18 17 17 17 17 16 14 13 13 13 12 12 12 13 15 19 22 23 21 19 18 18 17 16 15 15 15 15 14 13 10 8 6 5 4 2
26 21 16 15 19 18 18 17 17 17 17 17 16 15 13 13 12 13 13 14 14 15 17 21 23 22 23 23 21 19 19 18 17 17 16 16 16 14 12 9 8 7 6
22 23 18 15 19 17 17 17 17 16 16 15 14 13 14 14 14 14 15 16 17 16 15 15 18 21 26 27 28 24 22 21 19 19 19 18 19 18 16 13 12 11 11
18 24 18 20 23 18 17 19 18 17 16 16 15 15 7 13 18 19 19 19 18 17 17 19 19 20 22 26 30 30 26 24 24 24 23 23 22 21 19 17 17 16 15
21 22 21 25 25 20 22 21 20 18 17 17 18 12 6 8 15 22 23 20 18 19 18 20 20 20 20 19 22 26 28 30 28 26 26 27 26 25 23 22 22 22 21
18 26 27 24 23 24 20 22 22 20 17 18 16 20 21 16 3 3 14 20 20 20 20 21 21 20 20 22 23 23 27 28 31 32 29 28 27 28 28 27 27 27 27
29 28 30 27 24 24 23 22 23 23 22 19 16 16 18 19 17 11 7 9 14 18 20 23 23 17 17 20 24 25 27 25 27 30 33 32 28 29 28 29 29 29 30
31 38 31 28 27 25 24 24 25 24 24 22 21 18 17 14 14 14 9 15 16 18 18 18 27 25 27 23 23 28 27 31 33 33 32 33 35 33 30 29 28 29 30
27 30 31 30 27 28 28 28 26 27 26 23 22 21 21 20 21 20 16 18 14 11 13 20 28 29 28 29 29 30 33 32 30 29 30 31 33 35 36 33 31 31 32
35 34 32 33 32 29 29 30 29 29 31 24 23 24 22 22 21 19 18 17 9 14 13 20 19 28 31 32 34 35 34 34 33 31 28 26 25 25 26 29 31 31 30
36 34 35 35 34 32 30 29 27 27 25 25 24 26 27 25 25 23 23 21 19 7 7 14 20 24 26 31 35 37 35 30 27 24 23 22 22 24 25 26 27 27 27
37 37 38 37 35 33 32 31 29 28 28 27 27 28 29 28 28 26 24 23 24 21 12 19 20 25 28 30 36 36 30 24 23 22 22 24 25 26 26 26 26 27 28
40 40 39 39 39 37 36 35 34 34 33 32 32 32 32 30 28 24 26 27 27 28 19 22 24 25 25 25 28 26 25 24 23 22 21 23 24 26 26 26 26 27 28
37 37 39 35 37 38 38 37 36 35 35 36 36 35 35 31 29 28 30 30 32 28 26 21 19 22 23 25 23 25 25 24 21 19 19 22 22 24 26 28 28 30 32
38 38 37 37 40 38 37 38 39 38 38 37 37 37 36 32 30 30 33 31 29 29 30 21 16 20 18 23 26 23 22 20 19 18 20 19 24 26 27 28 29 30 30
38 39 39 40 40 39 40 40 39 39 38 36 35 36 35 33 30 34 32 30 29 27 26 23 17 16 19 19 24 16 17 17 16 17 17 18 21 22 25 22 20 23 24
39 38 37 39 39 40 40 39 38 39 36 34 36 36 35 34 33 35 32 28 29 28 22 20 14 9 14 11 18 14 14 15 15 16 17 19 18 16 16 18 20 22 21
36 35 37 37 37 38 39 40 39 32 32 33 33 34 32 33 36 36 35 30 31 30 25 20 18 14 14 14 13 14 11 10 10 14 18 16 15 17 19 20 21 23 25
34 36 36 35 36 35 35 38 36 37 30 30 29 26 31 39 37 33 27 26 25 24 22 21 13 13 12 12 11 10 9 11 13 15 14 17 17 21 21 22 20 21 26
35 34 33 33 32 31 32 33 36 39 36 34 32 36 37 33 28 27 27 22 18 16 16 14 14 10 10 9 7 5 8 11 12 14 15 17 17 20 20 22 23 26 29
29 29 27 27 26 25 26 26 25 34 30 26 24 24 26 24 24 26 26 24 18 16 11 12 12 7 4 6 7 4 6 10 11 14 14 18 18 19 19 21 26 25 16
24 23 17 15 16 17 19 22 25 28 22 17 14 12 15 19 24 24 26 24 21 14 9 10 5 4 0 1 3 6 5 9 11 9 6 6 13 13 15 16 16 15 22
Wind_Direction
164 162 166 162 162 162 164 162 169 161 161 163 157 155 154 141 135 140 154 163 159 155 155 155 151 149 150 153 146 140 140 142 139 134 131 126 117 111 104 101 97 90 84
171 168 173 168 170 169 173 173 169 166 166 163 161 158 155 151 152 149 159 173 172 168 169 169 168 166 163 169 168 161 159 162 160 155 150 146 145 134 123 118 113 110 101
180 172 178 173 174 170 175 176 169 172 168 170 166 164 162 161 157 157 160 173 184 187 186 181 180 181 182 184 183 179 180 178 179 176 172 165 162 161 158 159 154 145 139
180 173 177 173 171 170 176 177 176 178 176 178 173 174 175 174 172 175 177 178 182 194 201 201 199 195 193 195 198 197 192 190 192 194 190 187 189 193 197 191 190 194 157
179 175 169 171 169 170 175 175 182 184 183 183 181 182 186 188 186 186 193 201 196 197 200 209 211 210 210 207 205 206 205 202 202 204 203 203 206 212 217 215 215 229 243
173 162 166 163 173 174 177 182 186 189 189 189 187 189 196 200 199 203 205 208 213 213 213 202 206 216 221 220 218 213 214 213 211 213 212 215 219 222 226 227 234 242 250
180 158 169 182 186 184 186 187 188 188 192 191 193 190 204 210 214 213 214 217 219 217 220 218 209 211 226 228 230 222 220 220 220 220 222 221 224 228 233 236 239 243 248
183 174 173 193 202 192 195 190 191 189 193 191 198 198 204 212 223 223 221 221 223 220 221 224 227 230 230 221 226 229 224 224 226 226 226 227 228 231 234 238 242 245 246
196 186 189 197 203 199 196 196 197 199 195 196 214 228 216 229 201 205 214 225 222 222 226 230 231 235 238 233 233 228 232 229 226 230 231 230 230 232 234 237 240 243 246
201 194 209 208 201 210 207 202 204 206 214 199 211 242 265 293 286 105 197 209 222 222 228 232 232 233 240 244 244 240 238 241 236 230 232 237 238 239 238 241 245 247 247
215 209 217 209 210 211 215 213 209 211 215 224 220 214 239 252 257 264 256 227 218 228 228 234 237 235 245 248 250 245 245 245 242 241 240 240 241 245 249 250 250 254 255
210 211 214 210 213 216 216 218 217 216 222 222 225 229 237 243 243 244 255 258 234 224 218 231 235 241 237 231 250 256 249 247 245 245 244 247 251 250 251 255 258 261 264
209 212 214 212 211 217 220 222 225 221 221 228 230 236 240 241 247 250 237 259 264 245 212 231 243 251 241 247 241 248 250 244 239 241 245 248 253 255 253 253 255 259 261
211 207 209 211 211 213 218 222 223 230 229 225 231 237 237 241 247 255 255 259 251 241 234 235 250 244 247 243 240 239 245 245 245 241 245 253 257 257 257 258 260 261 262
215 218 215 213 213 214 214 217 218 224 224 223 227 230 234 240 244 243 246 240 234 247 231 231 220 234 240 249 244 244 243 241 244 242 242 247 254 261 265 266 266 267 267
218 218 217 217 217 218 220 222 226 230 232 232 232 234 237 240 246 249 236 232 227 236 264 249 247 252 242 244 246 240 236 229 231 238 246 255 260 263 266 268 269 267 268
218 221 220 220 222 224 227 228 232 236 237 238 238 241 243 244 243 236 224 228 229 239 255 264 255 236 238 236 230 229 227 226 235 253 254 259 260 262 264 265 266 269 273
222 222 225 226 227 230 232 233 234 236 239 241 244 243 242 240 237 227 228 231 232 236 237 248 234 223 225 224 224 220 221 232 238 249 255 246 259 268 270 267 268 270 273
222 225 226 226 229 230 233 234 236 239 242 245 245 247 243 231 230 231 229 230 229 228 230 229 211 220 211 211 209 216 228 239 242 249 258 261 271 271 266 265 267 270 271
221 223 226 229 231 233 233 234 236 241 244 246 246 242 242 235 228 233 232 226 225 226 224 216 202 193 201 204 211 213 227 238 243 246 253 257 262 268 276 279 281 283 283
221 221 223 227 230 232 234 233 232 234 235 237 240 242 239 238 237 232 226 221 223 220 208 199 195 182 185 180 197 211 220 241 244 249 260 263 265 263 274 283 283 287 287
223 222 223 225 228 229 232 232 230 232 232 232 233 238 240 240 240 236 229 237 243 216 199 192 197 192 182 187 194 214 217 241 254 255 253 256 257 266 274 276 273 268 272
219 223 225 224 228 231 231 230 229 228 233 230 231 237 239 248 239 228 228 216 211 206 213 196 181 176 164 193 193 203 223 243 252 261 275 271 271 276 277 278 269 280 283
217 219 223 225 228 232 235 235 231 229 229 235 232 231 235 232 226 218 200 185 173 163 164 167 152 161 151 157 182 210 252 275 275 273 270 269 271 272 279 283 280 280 285
216 218 223 225 228 229 229 232 230 222 222 223 221 222 224 217 205 195 180 158 142 130 115 113 136 156 160 177 196 202 255 265 267 272 273 276 277 281 281 286 285 281 278
205 191 189 195 207 221 234 236 233 217 196 177 171 170 184 177 162 165 160 150 127 121 115 108 79 88 303 255 257 231 258 269 276 287 284 278 276 292 292 279 279 288 293